{"data":{"norad_id":60999,"intl_designator":"2024-158K","name":"STARLINK-11270 [DTC]","alt_names":[],"object_type":"PAYLOAD","status":"ACTIVE","operator":null,"country":"US","launch_date":"2024-09-05","launch_site_code":"AFETR","launch_vehicle":null,"mission":null,"orbit_class":"UNKNOWN","rcs_meters":null,"size_class":null,"mass_kg":null,"dimensions":null,"purposes":["comms"],"wikipedia_slug":null,"has_3d_model":false,"image_url":null,"decayed_at":null,"tle_current":{"epoch":"2026-09-21T20:30:59.690592Z","epoch_age_seconds":75119,"freshness":"FRESH","line1":"1 60999U 24158K   26264.85485753  .00108305  00000+0  88557-3 0  9990","line2":"2 60999  53.1577  34.3098 0000994  72.2668 287.8458 15.69754250118391","mean_motion":15.6975425,"eccentricity":9.94e-5,"inclination_deg":53.1577,"raan_deg":34.3098,"arg_perigee_deg":72.2668,"mean_anomaly_deg":287.8458,"bstar":0.00088557,"rev_number":11839,"period_min":91.734104239565,"perigee_km":358.93039576196,"apogee_km":360.26985790277,"semimajor_km":6737.7371268324,"source":"CELESTRAK","updated_at":"2026-09-22T09:00:49.296327Z"}}}